Terminal Aerodrome Forecast
Issued by NWS

Home | Current Version | Previous Version | Text Only | Print | Product List | Glossary On
Versions: 1 2 3 4 5 6 7 8 9 10 11 12 13 14 15 16 17 18 19
000
FTUS42 KJAX 301200 AAA
TAFCRG
TAF AMD
KCRG 301200Z 3012/3112 VRB03KT 5SM BR OVC005
     FM301300 VRB03KT 3SM BR BKN007
     FM301330 VRB03KT P6SM BKN250
     FM301600 12008KT P6SM VCSH SCT040
     FM302000 15010KT P6SM VCTS SCT050CB
      TEMPO 3020/3024 VRB15G25KT 3SM TSRA BKN050CB OVC080
     FM310200 VRB03KT P6SM SKC=

USA.gov is the U.S. government's official web portal to all federal, state and local government web resources and services.